User: anonymous   Login
Location: Unspecified
(0.0000°N, 0.0000°E)
Time: 23:20:08
(UTC+02:00)
Language:

BREEZE-M DEB (TANK) - Orbit

View from above orbital plane
View from above orbital plane
View from above satellite
View from above satellite

Ground track
Ground track

The orbit data is extracted from the following two-line orbital elements,

1 33374U 08044B   14297.35690681  .00001871  00000-0  52898-3 0  7683
2 33374 049.4238 240.8953 5457712 225.6182 346.7313 04.84567508106999
Epoch (UTC): 24 October 2014 08:33:56
Eccentricity: 0.5457712
inclination: 49.4238°
perigee height: 322 km
apogee height: 16424 km
right ascension of ascending node: 240.8953°
argument of perigee: 225.6182°
revolutions per day: 4.84567508
mean anomaly at epoch: 346.7313°
orbit number at epoch: 10699

The dashed part of the orbit path shows where the satellite is in the earth's shadow,  

DLR